Weather in Novoilyinovka

Russia / Khabarovsk Krai     51°10′46″N   138°37′32″E
temp.,
°C
wind,
m/s
gust,
m/s
humid.,
%
clouds,
%
prec.,
mm/h
press.,
hPa
HPBL,
m
18 october, mon
mon1801:00−10sw239659 0.0 101447
04:00−10sw249640 0.0 101678
07:00−11wsw239642 0.0 101764
10:00−5wsw35715 0.0 1019525
13:00−1sw465089 0.0 10181901
16:00−1w3654100 0.1 10191800
19:00−8sw119244 0.0 102120
22:00−10wsw11955 0.0 102220
19 october, tue
tue1901:00−11wsw11969 0.0 102222
04:00−11wsw11969 0.0 102230
07:00−11wsw129638 0.0 102141
10:00−4sw310630 0.0 1021675
13:000sw58535 0.0 10191214
16:000sw48565 0.0 10181526
19:00−7sw11925 0.0 101927
22:00−8wsw11935 0.0 102031
20 october, wed
wed2001:00−9wsw11935 0.0 101930
04:00−9wsw23925 0.0 101942
07:00−9wsw11945 0.0 102038
10:00−3wsw24630 0.0 1020329
13:00+1sw23520 0.0 1019764
16:00+1ssw24614 0.0 1018460
19:00−6sw11955 0.0 101921
22:00−7wsw11955 0.0 101929
21 october, thu
thu2101:00−7wsw11956 0.0 101834
04:00−7wsw23945 0.0 101846
07:00−8wsw23945 0.0 101758
10:00−1wsw38630 0.0 1016403
13:00+2sw59555 0.0 1014892
16:00+2sw49615 0.0 1013985
19:00−4sw1193100 0.0 101425
22:00−2sw278493 0.0 1014217
22 october, fri
fri2201:00−3wsw129677 0.0 101442
04:00−4wsw229793 0.0 101445
07:00−4sw239788 0.0 101566
10:00+1wsw36735 0.0 1015383
13:00+4sw57635 0.0 1013860
16:00+3sw511697 0.0 1012988
19:00+2sw51472100 0.0 1011900
22:00+2sw51474100 0.0 1009606